TimeCST,TemperatureF,Dew PointF,Humidity,Sea Level PressureIn,VisibilityMPH,Wind Direction,Wind SpeedMPH,Gust SpeedMPH,PrecipitationIn,Events,Conditions,WindDirDegrees,DateUTC
12:53 AM,44.1,39.0,82,30.07,10.0,North,9.2,-,N/A,,Overcast,10,2013-02-23 06:53:00
1:53 AM,42.1,37.9,85,30.06,10.0,NNE,6.9,-,N/A,,Mostly Cloudy,20,2013-02-23 07:53:00
2:53 AM,39.9,37.0,89,30.04,10.0,NNE,9.2,-,N/A,,Partly Cloudy,20,2013-02-23 08:53:00
3:53 AM,39.0,36.0,89,30.04,10.0,NNE,9.2,-,N/A,,Clear,20,2013-02-23 09:53:00
4:53 AM,37.0,33.1,86,30.03,10.0,NNE,11.5,-,N/A,,Clear,30,2013-02-23 10:53:00
5:53 AM,36.0,30.9,82,30.04,10.0,NNE,11.5,-,N/A,,Clear,30,2013-02-23 11:53:00
6:53 AM,35.1,30.9,85,30.05,10.0,NNE,11.5,-,N/A,,Clear,20,2013-02-23 12:53:00
7:53 AM,37.0,30.9,79,30.07,10.0,NNE,11.5,-,N/A,,Clear,20,2013-02-23 13:53:00
8:53 AM,39.0,30.9,73,30.10,10.0,NNE,12.7,-,N/A,,Clear,20,2013-02-23 14:53:00
9:53 AM,39.9,32.0,73,30.09,10.0,NNE,11.5,-,N/A,,Clear,30,2013-02-23 15:53:00
10:53 AM,44.1,34.0,68,30.08,10.0,NNE,9.2,-,N/A,,Clear,20,2013-02-23 16:53:00
11:53 AM,45.0,35.1,68,30.06,10.0,North,9.2,-,N/A,,Clear,360,2013-02-23 17:53:00
12:53 PM,48.0,37.0,66,30.03,10.0,North,12.7,-,N/A,,Clear,360,2013-02-23 18:53:00
1:53 PM,50.0,37.0,61,30.01,10.0,NNE,8.1,-,N/A,,Clear,20,2013-02-23 19:53:00
2:53 PM,52.0,37.0,57,29.99,10.0,North,9.2,-,N/A,,Clear,360,2013-02-23 20:53:00
3:53 PM,52.0,37.9,59,29.98,10.0,NNE,11.5,-,N/A,,Clear,30,2013-02-23 21:53:00
4:53 PM,52.0,36.0,54,30.00,10.0,North,9.2,-,N/A,,Clear,360,2013-02-23 22:53:00
5:53 PM,46.9,37.0,68,30.02,10.0,NNE,4.6,-,N/A,,Partly Cloudy,20,2013-02-23 23:53:00
6:53 PM,46.9,37.9,71,30.02,10.0,Calm,Calm,-,N/A,,Partly Cloudy,0,2013-02-24 00:53:00
7:53 PM,42.1,37.0,82,30.01,10.0,North,4.6,-,N/A,,Clear,10,2013-02-24 01:53:00
8:53 PM,42.1,35.1,76,30.02,10.0,NE,4.6,-,N/A,,Clear,40,2013-02-24 02:53:00
9:53 PM,39.9,35.1,83,30.03,10.0,NNE,6.9,-,N/A,,Clear,30,2013-02-24 03:53:00
10:53 PM,39.9,35.1,83,30.03,10.0,NNE,5.8,-,N/A,,Clear,30,2013-02-24 04:53:00
11:53 PM,37.0,33.1,86,30.04,10.0,NNE,4.6,-,N/A,,Clear,30,2013-02-24 05:53:00